EN

Hourly Weather Abony

Today, 22 October, Thursday

Time Temperature Precipitation Wind Pressure Humidity
00:00 +11°C° 0 mm 3 mps 757 mmHg 65%
01:00 +10°C° 0 mm 3 mps 757 mmHg 66%
02:00 +10°C° 0 mm 2 mps 757 mmHg 68%
03:00 +10°C° 0 mm 2 mps 757 mmHg 70%
04:00 +9°C° 0 mm 2 mps 757 mmHg 72%
05:00 +9°C° 0 mm 2 mps 757 mmHg 72%
06:00 +9°C° 0 mm 2 mps 758 mmHg 73%
07:00 +9°C° 0 mm 2 mps 758 mmHg 73%
08:00 +11°C° 0 mm 3 mps 758 mmHg 67%
09:00 +13°C° 0 mm 3 mps 758 mmHg 61%
10:00 +16°C° 0 mm 3 mps 759 mmHg 55%
11:00 +17°C° 0 mm 3 mps 758 mmHg 54%
12:00 +18°C° 0 mm 3 mps 758 mmHg 52%
13:00 +19°C° 0 mm 4 mps 758 mmHg 50%
14:00 +18°C° 0 mm 3 mps 758 mmHg 53%
15:00 +18°C° 0 mm 2 mps 757 mmHg 57%
16:00 +17°C° 0 mm 2 mps 757 mmHg 60%
17:00 +16°C° 0 mm 2 mps 757 mmHg 64%
18:00 +15°C° 0 mm 2 mps 757 mmHg 68%
19:00 +14°C° 0 mm 2 mps 757 mmHg 71%
20:00 +14°C° 0 mm 1 mps 757 mmHg 74%
21:00 +13°C° 0 mm 1 mps 757 mmHg 77%
22:00 +13°C° 0 mm 1 mps 757 mmHg 79%
23:00 +13°C° 0 mm 1 mps 757 mmHg 80%

Tomorrow, 23 October, Friday

Time Temperature Precipitation Wind Pressure Humidity
00:00 +12°C° 0 mm 2 mps 757 mmHg 82%
01:00 +12°C° 0 mm 2 mps 757 mmHg 83%
02:00 +12°C° 0 mm 2 mps 757 mmHg 82%
03:00 +12°C° 0 mm 2 mps 756 mmHg 80%
04:00 +12°C° 0 mm 2 mps 756 mmHg 79%
05:00 +10°C° 0 mm 2 mps 756 mmHg 80%
06:00 +10°C° 0 mm 2 mps 756 mmHg 80%
07:00 +10°C° 0 mm 2 mps 756 mmHg 81%
08:00 +12°C° 0 mm 3 mps 756 mmHg 77%
09:00 +13°C° 0 mm 3 mps 756 mmHg 73%
10:00 +16°C° 0 mm 3 mps 756 mmHg 69%
11:00 +17°C° 0 mm 3 mps 755 mmHg 67%
12:00 +17°C° 0 mm 3 mps 755 mmHg 65%
13:00 +18°C° 0 mm 3 mps 754 mmHg 63%
14:00 +18°C° 0 mm 3 mps 754 mmHg 65%
15:00 +17°C° 0 mm 2 mps 754 mmHg 68%
16:00 +18°C° 0 mm 1 mps 753 mmHg 71%
17:00 +16°C° 0 mm 1 mps 753 mmHg 74%
18:00 +15°C° 0 mm 1 mps 753 mmHg 76%
19:00 +15°C° 0 mm 1 mps 753 mmHg 79%
20:00 +15°C° 0 mm 2 mps 753 mmHg 79%
21:00 +15°C° 0 mm 2 mps 753 mmHg 79%
22:00 +14°C° 0 mm 2 mps 753 mmHg 79%
23:00 +14°C° 0 mm 3 mps 753 mmHg 76%

Day after tomorrow, 24 October, Saturday

Time Temperature Precipitation Wind Pressure Humidity
00:00 +14°C° 0 mm 3 mps 753 mmHg 73%
01:00 +14°C° 0 mm 4 mps 753 mmHg 70%
02:00 +13°C° 0 mm 4 mps 753 mmHg 75%
03:00 +13°C° 0 mm 3 mps 753 mmHg 79%
04:00 +13°C° 0 mm 3 mps 753 mmHg 83%
05:00 +12°C° 0 mm 3 mps 753 mmHg 86%
06:00 +12°C° 0 mm 3 mps 753 mmHg 88%
07:00 +12°C° 0 mm 3 mps 753 mmHg 90%
08:00 +13°C° 0 mm 4 mps 754 mmHg 84%
09:00 +14°C° 0 mm 4 mps 754 mmHg 78%
10:00 +17°C° 0 mm 4 mps 754 mmHg 72%
11:00 +17°C° 0 mm 4 mps 754 mmHg 69%
12:00 +18°C° 0 mm 4 mps 754 mmHg 66%
13:00 +19°C° 0 mm 5 mps 754 mmHg 63%
14:00 +19°C° 0 mm 4 mps 754 mmHg 65%
15:00 +18°C° 0 mm 3 mps 754 mmHg 67%
16:00 +18°C° 0 mm 2 mps 754 mmHg 69%
17:00 +17°C° 0 mm 2 mps 755 mmHg 72%
18:00 +16°C° 0 mm 2 mps 755 mmHg 76%
19:00 +15°C° 0 mm 2 mps 755 mmHg 80%
20:00 +14°C° 0 mm 2 mps 755 mmHg 82%
21:00 +14°C° 0 mm 2 mps 756 mmHg 85%
22:00 +13°C° 0 mm 2 mps 756 mmHg 87%
23:00 +12°C° 0 mm 3 mps 756 mmHg 89%

, 25 October, Sunday

Time Temperature Precipitation Wind Pressure Humidity
00:00 +12°C° 0 mm 3 mps 756 mmHg 91%
01:00 +12°C° 0 mm 3 mps 755 mmHg 93%
02:00 +11°C° 0 mm 3 mps 755 mmHg 93%
03:00 +11°C° 0 mm 3 mps 755 mmHg 93%
04:00 +11°C° 0 mm 3 mps 755 mmHg 94%
05:00 +11°C° 0 mm 3 mps 755 mmHg 94%
06:00 +10°C° 0 mm 3 mps 755 mmHg 94%
07:00 +10°C° 0 mm 2 mps 755 mmHg 93%
08:00 +12°C° 0 mm 3 mps 755 mmHg 86%
09:00 +13°C° 0 mm 3 mps 755 mmHg 78%
10:00 +15°C° 0 mm 4 mps 755 mmHg 70%
11:00 +17°C° 0 mm 3 mps 755 mmHg 66%
12:00 +18°C° 0 mm 3 mps 755 mmHg 62%
13:00 +19°C° 0 mm 3 mps 754 mmHg 57%
14:00 +18°C° 0 mm 3 mps 754 mmHg 61%
15:00 +18°C° 0 mm 2 mps 754 mmHg 64%
16:00 +17°C° 0 mm 2 mps 754 mmHg 67%
17:00 +18°C° 0 mm 1 mps 754 mmHg 70%
18:00 +16°C° 0 mm 1 mps 754 mmHg 72%
19:00 +15°C° 0 mm 1 mps 754 mmHg 75%
20:00 +15°C° 0.1 mm 2 mps 754 mmHg 78%
21:00 +15°C° 0.1 mm 2 mps 753 mmHg 80%
22:00 +15°C° 0.1 mm 2 mps 753 mmHg 82%
23:00 +15°C° 0.2 mm 2 mps 753 mmHg 85%

25 October, Sunday

Time Temperature Precipitation Wind Pressure Humidity
00:00 +12°C° 0 mm 3 mps 756 mmHg 91%
01:00 +12°C° 0 mm 3 mps 755 mmHg 93%
02:00 +11°C° 0 mm 3 mps 755 mmHg 93%
03:00 +11°C° 0 mm 3 mps 755 mmHg 93%
04:00 +11°C° 0 mm 3 mps 755 mmHg 94%
05:00 +11°C° 0 mm 3 mps 755 mmHg 94%
06:00 +10°C° 0 mm 3 mps 755 mmHg 94%
07:00 +10°C° 0 mm 2 mps 755 mmHg 93%
08:00 +12°C° 0 mm 3 mps 755 mmHg 86%
09:00 +13°C° 0 mm 3 mps 755 mmHg 78%
10:00 +15°C° 0 mm 4 mps 755 mmHg 70%
11:00 +17°C° 0 mm 3 mps 755 mmHg 66%
12:00 +18°C° 0 mm 3 mps 755 mmHg 62%
13:00 +19°C° 0 mm 3 mps 754 mmHg 57%
14:00 +18°C° 0 mm 3 mps 754 mmHg 61%
15:00 +18°C° 0 mm 2 mps 754 mmHg 64%
16:00 +17°C° 0 mm 2 mps 754 mmHg 67%
17:00 +18°C° 0 mm 1 mps 754 mmHg 70%
18:00 +16°C° 0 mm 1 mps 754 mmHg 72%
19:00 +15°C° 0 mm 1 mps 754 mmHg 75%
20:00 +15°C° 0.1 mm 2 mps 754 mmHg 78%
21:00 +15°C° 0.1 mm 2 mps 753 mmHg 80%
22:00 +15°C° 0.1 mm 2 mps 753 mmHg 82%
23:00 +15°C° 0.2 mm 2 mps 753 mmHg 85%

26 October, Monday

Time Temperature Precipitation Wind Pressure Humidity
00:00 +14°C° 0.2 mm 2 mps 753 mmHg 87%
01:00 +14°C° 0.2 mm 2 mps 752 mmHg 90%
02:00 +14°C° 0.2 mm 2 mps 752 mmHg 91%
03:00 +14°C° 0.2 mm 2 mps 752 mmHg 92%
04:00 +13°C° 0.2 mm 3 mps 751 mmHg 93%
05:00 +13°C° 1.5 mm 3 mps 751 mmHg 93%
06:00 +13°C° 1.5 mm 3 mps 751 mmHg 94%
07:00 +13°C° 1.5 mm 3 mps 751 mmHg 94%
08:00 +13°C° 1.2 mm 3 mps 751 mmHg 91%
09:00 +13°C° 1.2 mm 4 mps 751 mmHg 88%
10:00 +13°C° 1.2 mm 4 mps 750 mmHg 85%
11:00 +14°C° 0.1 mm 4 mps 750 mmHg 79%
12:00 +15°C° 0.1 mm 5 mps 750 mmHg 74%
13:00 +16°C° 0.1 mm 5 mps 750 mmHg 68%
14:00 +17°C° 0 mm 4 mps 749 mmHg 70%
15:00 +17°C° 0 mm 3 mps 749 mmHg 72%
16:00 +17°C° 0 mm 3 mps 749 mmHg 74%
17:00 +16°C° 0.1 mm 3 mps 749 mmHg 77%
18:00 +14°C° 0.1 mm 3 mps 749 mmHg 79%
19:00 +14°C° 0.1 mm 3 mps 749 mmHg 82%
20:00 +13°C° 0 mm 3 mps 749 mmHg 83%
21:00 +13°C° 0 mm 3 mps 750 mmHg 84%
22:00 +12°C° 0 mm 3 mps 750 mmHg 86%
23:00 +12°C° 0 mm 3 mps 750 mmHg 86%

27 October, Tuesday

Time Temperature Precipitation Wind Pressure Humidity
00:00 +12°C° 0 mm 3 mps 750 mmHg 86%
01:00 +12°C° 0 mm 3 mps 750 mmHg 87%
02:00 +11°C° 0 mm 3 mps 750 mmHg 87%
03:00 +11°C° 0 mm 3 mps 750 mmHg 88%
04:00 +11°C° 0 mm 3 mps 750 mmHg 88%
05:00 +11°C° 0 mm 3 mps 750 mmHg 88%
06:00 +11°C° 0 mm 3 mps 750 mmHg 88%
07:00 +11°C° 0 mm 3 mps 751 mmHg 88%
08:00 +12°C° 0 mm 3 mps 751 mmHg 81%
09:00 +14°C° 0 mm 3 mps 751 mmHg 75%
10:00 +15°C° 0 mm 4 mps 751 mmHg 68%
11:00 +17°C° 0 mm 4 mps 751 mmHg 65%
12:00 +18°C° 0 mm 4 mps 751 mmHg 61%
13:00 +19°C° 0 mm 4 mps 751 mmHg 57%
14:00 +19°C° 0 mm 3 mps 751 mmHg 60%
15:00 +18°C° 0 mm 3 mps 750 mmHg 63%
16:00 +18°C° 0 mm 3 mps 750 mmHg 67%
17:00 +17°C° 0 mm 3 mps 750 mmHg 69%
18:00 +16°C° 0 mm 3 mps 750 mmHg 72%
19:00 +15°C° 0 mm 4 mps 751 mmHg 75%
20:00 +14°C° 0 mm 3 mps 751 mmHg 76%
21:00 +14°C° 0 mm 3 mps 751 mmHg 78%
22:00 +13°C° 0 mm 3 mps 751 mmHg 79%
23:00 +13°C° 0 mm 3 mps 751 mmHg 80%
Show more

We Need Your Consent

Meteoprog and our Service Providers may store and access personal data such as cookies, device identifiers or other similar technologies on your device and process such data to personalise content and ads, as well as provide social media features and to analyse the traffic.

  • Store and/or access information on your device

    Cookies, device identifiers or other information can be stored or accessed on your device for the purposes indicated above.

  • Personalised ads and content, ad and content measurement, audience insights, and products development

    Ads and content can be personalised based on a profile. More data can be added to better personalise ads and content. Ad and content performance can be measured. Insights about the audience who saw the ads and content can be derived. Such data can be used to develop or improve user’s experience, systems and software.

By clicking ‘I Agree’ you will allow the use of indicated cookies, device identifiers, web beacons or other similar technologies. Your settings can be changed in the browser on your device.

For certain purposes, legitimate interests may be relied on, rather than consent. You can read more about this in our Privacy and Cookie Policy.